Time,TemperatureF,DewpointF,PressureIn,WindDirection,WindDirectionDegrees,WindSpeedMPH,WindSpeedGustMPH,Humidity,HourlyPrecipIn,Conditions,Clouds,dailyrainin,SolarRadiationWatts/m^2,SoftwareType,DateUTC
2013-01-19 00:12:00,21.0,-5.0,-100.00,ENE,67,2.0,5.0,31,0.00,,,0.00,0.000000,,2013-01-19 07:12:00,
2013-01-19 00:22:00,21.0,-5.0,-100.00,ENE,67,2.0,5.0,31,0.00,,,0.00,0.000000,,2013-01-19 07:22:00,
2013-01-19 00:33:00,21.0,-5.0,-100.00,ENE,67,2.0,5.0,31,0.00,,,0.00,0.000000,,2013-01-19 07:33:00,
2013-01-19 00:43:00,21.0,-5.0,-100.00,ENE,67,2.0,5.0,31,0.00,,,0.00,0.000000,,2013-01-19 07:43:00,
2013-01-19 00:52:00,21.0,-5.0,-100.00,ENE,67,2.0,5.0,31,0.00,,,0.00,0.000000,,2013-01-19 07:52:00,
2013-01-19 01:12:00,21.0,-5.0,-100.00,NNE,12,3.0,14.0,31,0.00,,,0.00,0.000000,,2013-01-19 08:12:00,
2013-01-19 01:22:00,21.0,-5.0,-100.00,NNE,12,3.0,14.0,31,0.00,,,0.00,0.000000,,2013-01-19 08:22:00,
2013-01-19 01:32:00,21.0,-5.0,-100.00,NNE,12,3.0,14.0,31,0.00,,,0.00,0.000000,,2013-01-19 08:32:00,
2013-01-19 01:43:00,21.0,-5.0,-100.00,NNE,12,3.0,14.0,31,0.00,,,0.00,0.000000,,2013-01-19 08:43:00,
2013-01-19 01:52:00,21.0,-5.0,-100.00,NNE,12,3.0,14.0,31,0.00,,,0.00,0.000000,,2013-01-19 08:52:00,
2013-01-19 02:12:00,23.0,-8.0,-100.00,West,267,7.0,24.0,25,0.00,,,-99.99,0.000000,,2013-01-19 09:12:00,
2013-01-19 02:23:00,23.0,-8.0,-100.00,West,267,7.0,24.0,25,0.00,,,-99.99,0.000000,,2013-01-19 09:23:00,
2013-01-19 02:33:00,23.0,-8.0,-100.00,West,267,7.0,24.0,25,0.00,,,-99.99,0.000000,,2013-01-19 09:33:00,
2013-01-19 02:42:00,23.0,-8.0,-100.00,West,267,7.0,24.0,25,0.00,,,-99.99,0.000000,,2013-01-19 09:42:00,
2013-01-19 02:52:00,23.0,-8.0,-100.00,West,267,7.0,24.0,25,0.00,,,-99.99,0.000000,,2013-01-19 09:52:00,
2013-01-19 03:12:00,22.0,-8.0,-100.00,SSW,204,7.0,18.0,26,0.00,,,0.00,0.000000,,2013-01-19 10:12:00,
2013-01-19 03:22:00,22.0,-8.0,-100.00,SSW,204,7.0,18.0,26,0.00,,,0.00,0.000000,,2013-01-19 10:22:00,
2013-01-19 03:32:00,22.0,-8.0,-100.00,SSW,204,7.0,18.0,26,0.00,,,0.00,0.000000,,2013-01-19 10:32:00,
2013-01-19 03:42:00,22.0,-8.0,-100.00,SSW,204,7.0,18.0,26,0.00,,,0.00,0.000000,,2013-01-19 10:42:00,
2013-01-19 03:52:00,22.0,-8.0,-100.00,SSW,204,7.0,18.0,26,0.00,,,0.00,0.000000,,2013-01-19 10:52:00,
2013-01-19 05:48:00,21.0,-5.0,-100.00,South,186,5.0,10.0,31,0.00,,,0.00,0.000000,,2013-01-19 12:48:00,
2013-01-19 05:52:00,21.0,-5.0,-100.00,South,186,5.0,10.0,31,0.00,,,0.00,0.000000,,2013-01-19 12:52:00,
2013-01-19 06:22:00,23.0,-4.0,-100.00,West,270,6.0,23.0,29,0.00,,,-99.99,0.000000,,2013-01-19 13:22:00,
2013-01-19 06:33:00,23.0,-4.0,-100.00,West,270,6.0,23.0,29,0.00,,,-99.99,0.000000,,2013-01-19 13:33:00,
2013-01-19 06:42:00,23.0,-4.0,-100.00,West,270,6.0,23.0,29,0.00,,,-99.99,0.000000,,2013-01-19 13:42:00,
2013-01-19 06:52:00,23.0,-4.0,-100.00,West,270,6.0,23.0,29,0.00,,,-99.99,0.000000,,2013-01-19 13:52:00,
2013-01-19 07:12:00,20.0,-4.0,-100.00,ESE,121,4.0,16.0,33,0.00,,,0.00,0.000000,,2013-01-19 14:12:00,
2013-01-19 07:23:00,20.0,-4.0,-100.00,ESE,121,4.0,16.0,33,0.00,,,0.00,0.000000,,2013-01-19 14:23:00,
2013-01-19 07:34:00,20.0,-4.0,-100.00,ESE,121,4.0,16.0,33,0.00,,,0.00,0.000000,,2013-01-19 14:34:00,
2013-01-19 07:43:00,20.0,-4.0,-100.00,ESE,121,4.0,16.0,33,0.00,,,0.00,0.000000,,2013-01-19 14:43:00,
2013-01-19 07:53:00,20.0,-4.0,-100.00,ESE,121,4.0,16.0,33,0.00,,,0.00,0.000000,,2013-01-19 14:53:00,
2013-01-19 08:13:00,23.0,-5.0,-100.00,North,354,4.0,17.0,28,0.00,,,0.00,7.000000,,2013-01-19 15:13:00,
2013-01-19 08:23:00,23.0,-5.0,-100.00,North,354,4.0,17.0,28,0.00,,,0.00,7.000000,,2013-01-19 15:23:00,
2013-01-19 08:33:00,23.0,-5.0,-100.00,North,354,4.0,17.0,28,0.00,,,0.00,7.000000,,2013-01-19 15:33:00,
2013-01-19 08:43:00,23.0,-5.0,-100.00,North,354,4.0,17.0,28,0.00,,,0.00,7.000000,,2013-01-19 15:43:00,
2013-01-19 08:53:00,23.0,-5.0,-100.00,North,354,4.0,17.0,28,0.00,,,0.00,7.000000,,2013-01-19 15:53:00,
2013-01-19 09:13:00,29.0,-4.0,-100.00,West,270,4.0,11.0,23,0.00,,,0.00,134.000000,,2013-01-19 16:13:00,
2013-01-19 09:23:00,29.0,-4.0,-100.00,West,270,4.0,11.0,23,0.00,,,0.00,134.000000,,2013-01-19 16:23:00,
2013-01-19 09:33:00,29.0,-4.0,-100.00,West,270,4.0,11.0,23,0.00,,,0.00,134.000000,,2013-01-19 16:33:00,
2013-01-19 09:43:00,29.0,-4.0,-100.00,West,270,4.0,11.0,23,0.00,,,0.00,134.000000,,2013-01-19 16:43:00,
2013-01-19 09:53:00,29.0,-4.0,-100.00,West,270,4.0,11.0,23,0.00,,,0.00,134.000000,,2013-01-19 16:53:00,
2013-01-19 10:35:00,36.0,-6.0,-100.00,SE,138,3.0,8.0,16,0.00,,,0.00,292.000000,,2013-01-19 17:35:00,
2013-01-19 10:48:00,36.0,-6.0,-100.00,SE,138,3.0,8.0,16,0.00,,,0.00,292.000000,,2013-01-19 17:48:00,
2013-01-19 10:53:00,36.0,-6.0,-100.00,SE,138,3.0,8.0,16,0.00,,,0.00,292.000000,,2013-01-19 17:53:00,
2013-01-19 10:54:00,40.0,-3.0,-100.00,North,353,3.0,14.0,16,0.00,,,0.00,444.000000,,2013-01-19 17:54:00,
2013-01-19 11:14:00,40.0,-3.0,-100.00,North,353,3.0,14.0,16,0.00,,,0.00,444.000000,,2013-01-19 18:14:00,
2013-01-19 11:27:00,40.0,-3.0,-100.00,North,353,3.0,14.0,16,0.00,,,0.00,444.000000,,2013-01-19 18:27:00,
2013-01-19 11:35:00,40.0,-3.0,-100.00,North,353,3.0,14.0,16,0.00,,,0.00,444.000000,,2013-01-19 18:35:00,
2013-01-19 11:45:00,40.0,-3.0,-100.00,North,353,3.0,14.0,16,0.00,,,0.00,444.000000,,2013-01-19 18:45:00,
2013-01-19 11:54:00,41.0,-6.0,-100.00,WNW,293,6.0,13.0,13,0.00,,,0.00,523.000000,,2013-01-19 18:54:00,
2013-01-19 12:20:00,41.0,-6.0,-100.00,WNW,293,6.0,13.0,13,0.00,,,0.00,523.000000,,2013-01-19 19:20:00,
2013-01-19 12:29:00,41.0,-6.0,-100.00,WNW,293,6.0,13.0,13,0.00,,,0.00,523.000000,,2013-01-19 19:29:00,
2013-01-19 12:39:00,41.0,-6.0,-100.00,WNW,293,6.0,13.0,13,0.00,,,0.00,523.000000,,2013-01-19 19:39:00,
2013-01-19 12:45:00,41.0,-6.0,-100.00,WNW,293,6.0,13.0,13,0.00,,,0.00,523.000000,,2013-01-19 19:45:00,
2013-01-19 12:54:00,43.0,-3.0,-100.00,West,270,5.0,13.0,14,0.00,,,0.00,544.000000,,2013-01-19 19:54:00,
2013-01-19 13:25:00,43.0,-3.0,-100.00,West,270,5.0,13.0,14,0.00,,,0.00,544.000000,,2013-01-19 20:25:00,
2013-01-19 13:38:00,43.0,-3.0,-100.00,West,270,5.0,13.0,14,0.00,,,0.00,544.000000,,2013-01-19 20:38:00,
2013-01-19 13:47:00,43.0,-3.0,-100.00,West,270,5.0,13.0,14,0.00,,,0.00,544.000000,,2013-01-19 20:47:00,
2013-01-19 13:54:00,44.0,-5.0,-100.00,West,270,4.0,11.0,12,0.00,,,0.00,508.000000,,2013-01-19 20:54:00,
2013-01-19 14:14:00,44.0,-5.0,-100.00,West,270,4.0,11.0,12,0.00,,,0.00,508.000000,,2013-01-19 21:14:00,
2013-01-19 14:26:00,44.0,-5.0,-100.00,West,270,4.0,11.0,12,0.00,,,0.00,508.000000,,2013-01-19 21:26:00,
2013-01-19 14:44:00,44.0,-5.0,-100.00,West,270,4.0,11.0,12,0.00,,,0.00,508.000000,,2013-01-19 21:44:00,
2013-01-19 14:50:00,44.0,-5.0,-100.00,West,270,4.0,11.0,12,0.00,,,0.00,508.000000,,2013-01-19 21:50:00,
2013-01-19 14:54:00,44.0,-5.0,-100.00,NNW,327,4.0,10.0,12,0.00,,,0.00,415.000000,,2013-01-19 21:54:00,
2013-01-19 15:18:00,44.0,-5.0,-100.00,NNW,327,4.0,10.0,12,0.00,,,0.00,415.000000,,2013-01-19 22:18:00,
2013-01-19 15:35:00,44.0,-5.0,-100.00,NNW,327,4.0,10.0,12,0.00,,,0.00,415.000000,,2013-01-19 22:35:00,
2013-01-19 15:46:00,44.0,-5.0,-100.00,NNW,327,4.0,10.0,12,0.00,,,0.00,415.000000,,2013-01-19 22:46:00,
2013-01-19 15:54:00,41.0,-4.0,-100.00,East,94,3.0,13.0,14,0.00,,,0.00,278.000000,,2013-01-19 22:54:00,
2013-01-19 16:15:00,41.0,-4.0,-100.00,East,94,3.0,13.0,14,0.00,,,0.00,278.000000,,2013-01-19 23:15:00,
2013-01-19 16:25:00,41.0,-4.0,-100.00,East,94,3.0,13.0,14,0.00,,,0.00,278.000000,,2013-01-19 23:25:00,
2013-01-19 16:34:00,41.0,-4.0,-100.00,East,94,3.0,13.0,14,0.00,,,0.00,278.000000,,2013-01-19 23:34:00,
2013-01-19 16:45:00,41.0,-4.0,-100.00,East,94,3.0,13.0,14,0.00,,,0.00,278.000000,,2013-01-19 23:45:00,
2013-01-19 17:15:00,34.0,-7.0,-100.00,ENE,59,3.0,10.0,16,0.00,,,0.00,107.000000,,2013-01-20 00:15:00,
2013-01-19 17:25:00,34.0,-7.0,-100.00,ENE,59,3.0,10.0,16,0.00,,,0.00,107.000000,,2013-01-20 00:25:00,
2013-01-19 17:35:00,34.0,-7.0,-100.00,ENE,59,3.0,10.0,16,0.00,,,0.00,107.000000,,2013-01-20 00:35:00,
2013-01-19 17:45:00,34.0,-7.0,-100.00,ENE,59,3.0,10.0,16,0.00,,,0.00,107.000000,,2013-01-20 00:45:00,
2013-01-19 17:53:00,34.0,-7.0,-100.00,ENE,59,3.0,10.0,16,0.00,,,0.00,107.000000,,2013-01-20 00:53:00,
2013-01-19 17:54:00,24.0,-5.0,-100.00,East,93,2.0,8.0,27,0.00,,,0.00,3.000000,,2013-01-20 00:54:00,
2013-01-19 18:20:00,24.0,-5.0,-100.00,East,93,2.0,8.0,27,0.00,,,0.00,3.000000,,2013-01-20 01:20:00,
2013-01-19 18:36:00,24.0,-5.0,-100.00,East,93,2.0,8.0,27,0.00,,,0.00,3.000000,,2013-01-20 01:36:00,
2013-01-19 18:54:00,24.0,-7.0,-100.00,NE,42,3.0,8.0,25,0.00,,,0.00,0.000000,,2013-01-20 01:54:00,
2013-01-19 19:15:00,24.0,-7.0,-100.00,NE,42,3.0,8.0,25,0.00,,,0.00,0.000000,,2013-01-20 02:15:00,
2013-01-19 19:26:00,24.0,-7.0,-100.00,NE,42,3.0,8.0,25,0.00,,,0.00,0.000000,,2013-01-20 02:26:00,
2013-01-19 19:35:00,24.0,-7.0,-100.00,NE,42,3.0,8.0,25,0.00,,,0.00,0.000000,,2013-01-20 02:35:00,
2013-01-19 19:44:00,24.0,-7.0,-100.00,NE,42,3.0,8.0,25,0.00,,,0.00,0.000000,,2013-01-20 02:44:00,
2013-01-19 19:54:00,27.0,-8.0,-100.00,WNW,301,5.0,11.0,21,0.00,,,0.00,0.000000,,2013-01-20 02:54:00,
2013-01-19 20:14:00,27.0,-8.0,-100.00,WNW,301,5.0,11.0,21,0.00,,,0.00,0.000000,,2013-01-20 03:14:00,
2013-01-19 20:25:00,27.0,-8.0,-100.00,WNW,301,5.0,11.0,21,0.00,,,0.00,0.000000,,2013-01-20 03:25:00,
2013-01-19 20:38:00,27.0,-8.0,-100.00,WNW,301,5.0,11.0,21,0.00,,,0.00,0.000000,,2013-01-20 03:38:00,
2013-01-19 20:45:00,27.0,-8.0,-100.00,WNW,301,5.0,11.0,21,0.00,,,0.00,0.000000,,2013-01-20 03:45:00,
2013-01-19 20:54:00,26.0,-9.0,-100.00,NW,323,3.0,13.0,20,0.00,,,0.00,0.000000,,2013-01-20 03:54:00,
2013-01-19 21:25:00,26.0,-9.0,-100.00,NW,323,3.0,13.0,20,0.00,,,0.00,0.000000,,2013-01-20 04:25:00,
2013-01-19 21:44:00,26.0,-9.0,-100.00,NW,323,3.0,13.0,20,0.00,,,0.00,0.000000,,2013-01-20 04:44:00,
2013-01-19 22:12:00,24.0,-10.0,-100.00,NW,315,4.0,10.0,21,0.00,,,0.00,0.000000,,2013-01-20 05:12:00,
2013-01-19 22:22:00,24.0,-10.0,-100.00,NW,315,4.0,10.0,21,0.00,,,0.00,0.000000,,2013-01-20 05:22:00,
2013-01-19 22:32:00,24.0,-10.0,-100.00,NW,315,4.0,10.0,21,0.00,,,0.00,0.000000,,2013-01-20 05:32:00,
2013-01-19 22:42:00,24.0,-10.0,-100.00,NW,315,4.0,10.0,21,0.00,,,0.00,0.000000,,2013-01-20 05:42:00,
2013-01-19 22:53:00,24.0,-10.0,-100.00,NW,315,4.0,10.0,21,0.00,,,0.00,0.000000,,2013-01-20 05:53:00,
2013-01-19 23:12:00,26.0,-15.0,-100.00,South,172,2.0,12.0,15,0.00,,,0.00,0.000000,,2013-01-20 06:12:00,
2013-01-19 23:22:00,26.0,-15.0,-100.00,South,172,2.0,12.0,15,0.00,,,0.00,0.000000,,2013-01-20 06:22:00,
2013-01-19 23:33:00,26.0,-15.0,-100.00,South,172,2.0,12.0,15,0.00,,,0.00,0.000000,,2013-01-20 06:33:00,
2013-01-19 23:42:00,26.0,-15.0,-100.00,South,172,2.0,12.0,15,0.00,,,0.00,0.000000,,2013-01-20 06:42:00,
2013-01-19 23:52:00,26.0,-15.0,-100.00,South,172,2.0,12.0,15,0.00,,,0.00,0.000000,,2013-01-20 06:52:00,